This demonstration page uses our WeatherBlox Daily Observations layout. Learn more.

Left ArrowRight Arrow

41.55636, -103.73856

Hourly Observations for December 29, 2018

Temp ( °F °C ) Dew Point ( °F °C ) Humidity (%) Winds ( mph kmh ) Pressure ( in mb ) Visibility ( mi km ) Precip ( " mm )
5:58 pm 17:58 Clear 6 -14.2 2 -16.8 81 81 SSW 5 7 30.40 1030 10 16 N/A
6:58 pm 18:58 Mostly Cloudy 7 -13.8 3 -16 84 84 SW 6 9 30.40 1030 10 16 N/A
7:58 pm 19:58 Clear 8 -13.4 4 -15.6 84 84 SW 8 13 30.40 1030 10 16 N/A
8:58 pm 20:58 Clear 7 -13.7 3 -15.9 84 84 SW 12 19 30.39 1029 10 16 N/A
9:58 pm 21:58 Clear 7 -13.7 4 -15.7 85 85 WSW 13 20 30.39 1029 10 16 N/A
10:58 pm 22:58 Clear 8 -13.3 4 -15.6 83 83 SW 13 20 30.37 1029 10 16 N/A
11:58 pm 23:58 Clear 9 -12.9 5 -15 84 84 SW 12 19 30.37 1028 10 16 N/A
12:58 am 00:58 Clear 8 -13.6 3 -15.9 83 83 SW 14 22 30.35 1028 10 16 N/A
1:58 am 01:58 Clear 7 -13.7 3 -16 83 83 SW 15 24 30.35 1028 10 16 N/A
2:58 am 02:58 Clear 8 -13.6 3 -16 82 82 SW 17 28 30.32 1027 10 16 N/A
3:58 am 03:58 Clear 9 -12.9 3 -16 78 78 SW 15 24 30.30 1026 10 16 N/A
4:58 am 04:58 Clear 7 -14.1 1 -17.1 78 78 SW 13 20 30.29 1026 10 16 N/A
5:58 am 05:58 Clear 7 -13.7 0 -17.8 71 71 WSW 13 20 30.32 1027 10 16 N/A
6:58 am 06:58 Clear 9 -12.7 0 -17.6 67 67 WSW 13 20 30.31 1026 10 16 N/A
7:58 am 07:58 Sunny 10 -12.3 1 -17.4 66 66 WSW 15 24 30.31 1026 10 16 N/A
8:58 am 08:58 Sunny 15 -9.6 4 -15.5 62 62 WSW 15 24 30.29 1026 10 16 N/A
9:58 am 09:58 Sunny 20 -6.7 8 -13.5 59 59 WSW 14 22 30.26 1025 10 16 N/A
10:58 am 10:58 Sunny 25 -4 9 -13 50 50 W 15 24 30.21 1023 10 16 N/A
11:58 am 11:58 Sunny 28 -2.1 7 -13.8 41 41 WNW 23 37 30.14 1021 10 16 N/A
12:58 pm 12:58 Sunny 30 -1.3 7 -13.8 38 38 WNW 25 41 30.11 1020 10 16 N/A
1:58 pm 13:58 Sunny 31 -0.3 7 -13.7 36 36 WNW 30 48 30.08 1019 10 16 N/A
2:58 pm 14:58 Sunny 32 -0.1 9 -12.6 39 39 W 24 39 30.09 1019 10 16 N/A
3:58 pm 15:58 Sunny 30 -1.1 11 -11.8 44 44 WNW 16 26 30.08 1019 10 16 N/A
4:58 pm 16:58 Clear 28 -2.2 11 -11.6 49 49 WNW 20 31 30.09 1019 10 16 N/A

Powered by AerisWeather